Weather in Etkul

Russia / Chelyabinsk Oblast     54°49′22″N   61°35′00″E
temp.,
°C
wind,
m/s
gust,
m/s
humid.,
%
clouds,
%
prec.,
mm/h
press.,
hPa
HPBL,
m
17 september, fri
fri1723:00+6w611735 0.0 1004535
02:00+4w6127417 0.0 1003639
05:00+5w71275100 0.0 10031010
08:00+5wnw61187100 0.1 1003917
11:00+7wnw71074100 0.3 10031026
14:00+8nw81066100 0.1 10051205
17:00+8wnw81074100 0.2 10061156
20:00+6wnw61078100 0.1 1008881
18 september, sat
sat1823:00+6wnw588383 0.2 1009792
02:00+6w498096 0.1 1009717
05:00+5w5885100 0.1 1010718
08:00+5wnw698099 0.3 1009799
11:00+7wnw676980 0.3 10091009
14:00+6wnw8973100 0.1 1010990
17:00+6wnw8107193 0.2 1010992
20:00+4wnw7127524 0.0 1011647
19 september, sun
sun1923:00+2wnw613815 0.0 1012611
02:00+3wnw7127096 0.0 1011983
05:00+3wnw81372100 0.0 10111075
08:00+3wnw81469100 0.0 10121130
11:00+5wnw101354100 0.0 10121493
14:00+6nw101358100 0.0 10141394
17:00+6nw9135891 0.0 10161379
20:00+3nw713655 0.0 1018934
20 september, mon
mon2023:00+2nw612715 0.0 1020638
02:00−1wnw410845 0.0 1022249
05:00−2wnw48878 0.0 1024160
08:00+1wnw486716 0.0 1025509
11:00+6nnw564885 0.0 10261226
14:00+9nnw454179 0.0 10261499
17:00+9n4541100 0.0 10261576
20:00+4ne486376 0.0 1028328
21 september, tue
tue2123:00+1ne227920 0.0 103032
02:00+1nne117790 0.0 103029
05:00+3wnw1170100 0.0 103030
08:00+2w127228 0.0 103164
11:00+7sw114911 0.0 1030986
14:00+10sw33415 0.0 10281227
17:00+11sw33385 0.0 10261266
20:00+5s33575 0.0 102635